| time (UTC) | temp F | wind direction | speed MPH | gust MPH | rain 1hr in | rain 24hr in | rain mn in | humidity % | barometer mb |
| 20260508195939 | 59 | 233 | 9.0 | 20.0 | 0.00 | 0.00 | 0.00 | 77 | 1018.7 |
| 20260508195422 | 59 | 252 | 11.0 | 20.0 | 0.00 | 0.00 | 0.00 | 77 | 1018.8 |
| 20260508194959 | 59 | 249 | 10.0 | 17.0 | 0.00 | 0.00 | 0.00 | 77 | 1018.7 |
| 20260508194424 | 59 | 268 | 9.0 | 17.0 | 0.00 | 0.00 | 0.00 | 77 | 1018.7 |
| 20260508193931 | 59 | 316 | 10.0 | 18.0 | 0.00 | 0.00 | 0.00 | 78 | 1018.7 |
| 20260508193437 | 58 | 255 | 10.0 | 21.0 | 0.00 | 0.00 | 0.00 | 78 | 1018.9 |
| 20260508192926 | 58 | 207 | 12.0 | 21.0 | 0.00 | 0.00 | 0.00 | 78 | 1018.8 |
| 20260508192434 | 58 | 294 | 9.0 | 19.0 | 0.00 | 0.00 | 0.00 | 78 | 1018.8 |
| 20260508191922 | 58 | 216 | 10.0 | 19.0 | 0.00 | 0.00 | 0.00 | 78 | 1018.8 |
| 20260508191444 | 58 | 287 | 10.0 | 19.0 | 0.00 | 0.00 | 0.00 | 79 | 1018.9 |
| 20260508190930 | 58 | 282 | 9.0 | 17.0 | 0.00 | 0.00 | 0.00 | 79 | 1019.0 |
| 20260508190436 | 58 | 263 | 9.0 | 17.0 | 0.00 | 0.00 | 0.00 | 79 | 1019.0 |
| 20260508190000 | 58 | 284 | 10.0 | 22.0 | 0.00 | 0.00 | 0.00 | 80 | 1019.1 |
| 20260508185422 | 57 | 249 | 11.0 | 22.0 | 0.00 | 0.00 | 0.00 | 80 | 1019.0 |
| 20260508184927 | 57 | 276 | 11.0 | 18.0 | 0.00 | 0.00 | 0.00 | 80 | 1019.0 |
| 20260508184431 | 57 | 195 | 9.0 | 19.0 | 0.00 | 0.00 | 0.00 | 81 | 1019.0 |
| 20260508183921 | 57 | 261 | 10.0 | 19.0 | 0.00 | 0.00 | 0.00 | 81 | 1019.0 |
| 20260508183426 | 57 | 239 | 8.0 | 21.0 | 0.00 | 0.00 | 0.00 | 82 | 1019.1 |
| 20260508182932 | 56 | 273 | 11.0 | 21.0 | 0.00 | 0.00 | 0.00 | 82 | 1019.2 |
| 20260508182420 | 56 | 311 | 8.0 | 18.0 | 0.00 | 0.00 | 0.00 | 82 | 1019.2 |
| 20260508181926 | 56 | 249 | 10.0 | 17.0 | 0.00 | 0.00 | 0.00 | 82 | 1019.1 |
| 20260508181450 | 56 | 232 | 9.0 | 15.0 | 0.00 | 0.00 | 0.00 | 83 | 1019.3 |
| 20260508180936 | 56 | 310 | 5.0 | 13.0 | 0.00 | 0.00 | 0.00 | 83 | 1019.1 |
| 20260508180450 | 56 | 237 | 6.0 | 12.0 | 0.00 | 0.00 | 0.00 | 84 | 1019.1 |
| 20260508175934 | 55 | 286 | 4.0 | 14.0 | 0.00 | 0.00 | 0.00 | 84 | 1019.2 |
| 20260508175437 | 55 | 261 | 4.0 | 14.0 | 0.00 | 0.00 | 0.00 | 84 | 1019.2 |
| 20260508174922 | 55 | 40 | 5.0 | 12.0 | 0.00 | 0.00 | 0.00 | 84 | 1019.3 |
| 20260508174424 | 55 | 222 | 7.0 | 11.0 | 0.00 | 0.00 | 0.00 | 84 | 1019.3 |
| 20260508173932 | 55 | 299 | 6.0 | 13.0 | 0.00 | 0.00 | 0.00 | 84 | 1019.3 |
| 20260508173438 | 55 | 319 | 6.0 | 13.0 | 0.00 | 0.00 | 0.00 | 84 | 1019.4 |
| 20260508172954 | 55 | 255 | 4.0 | 12.0 | 0.00 | 0.00 | 0.00 | 84 | 1019.4 |
| 20260508172439 | 55 | 290 | 6.0 | 12.0 | 0.00 | 0.00 | 0.00 | 84 | 1019.5 |
| 20260508171925 | 55 | 256 | 5.0 | 15.0 | 0.00 | 0.00 | 0.00 | 84 | 1019.4 |
| 20260508171431 | 55 | 316 | 9.0 | 15.0 | 0.00 | 0.00 | 0.00 | 84 | 1019.4 |
| 20260508170920 | 55 | 264 | 7.0 | 14.0 | 0.00 | 0.00 | 0.00 | 83 | 1019.4 |
| 20260508170421 | 55 | 319 | 7.0 | 14.0 | 0.00 | 0.00 | 0.00 | 83 | 1019.4 |
| 20260508165944 | 55 | 298 | 6.0 | 12.0 | 0.00 | 0.00 | 0.00 | 83 | 1019.3 |
| 20260508165451 | 55 | 310 | 7.0 | 14.0 | 0.00 | 0.00 | 0.00 | 83 | 1019.3 |
| 20260508164935 | 55 | 268 | 7.0 | 17.0 | 0.00 | 0.00 | 0.00 | 83 | 1019.2 |
| 20260508164442 | 54 | 295 | 8.0 | 18.0 | 0.00 | 0.00 | 0.00 | 83 | 1019.3 |
| 20260508163923 | 54 | 249 | 10.0 | 18.0 | 0.00 | 0.00 | 0.00 | 82 | 1019.3 |
| 20260508163429 | 55 | 277 | 8.0 | 16.0 | 0.00 | 0.00 | 0.00 | 82 | 1019.2 |
| 20260508162937 | 55 | 274 | 7.0 | 18.0 | 0.00 | 0.00 | 0.00 | 82 | 1019.2 |
| 20260508162424 | 55 | 280 | 10.0 | 20.0 | 0.00 | 0.00 | 0.00 | 82 | 1019.2 |
| 20260508161931 | 55 | 275 | 11.0 | 20.0 | 0.00 | 0.00 | 0.00 | 82 | 1019.2 |
| 20260508161438 | 55 | 227 | 8.0 | 15.0 | 0.00 | 0.00 | 0.00 | 82 | 1019.1 |
| 20260508160924 | 55 | 265 | 6.0 | 16.0 | 0.00 | 0.00 | 0.00 | 82 | 1019.1 |
| 20260508160429 | 55 | 254 | 8.0 | 16.0 | 0.00 | 0.00 | 0.00 | 82 | 1019.0 |
| 20260508155930 | 55 | 285 | 6.0 | 14.0 | 0.00 | 0.00 | 0.00 | 83 | 1018.8 |
| 20260508155437 | 55 | 287 | 8.0 | 16.0 | 0.00 | 0.00 | 0.00 | 83 | 1018.8 |
| 20260508154922 | 54 | 268 | 9.0 | 16.0 | 0.00 | 0.00 | 0.00 | 83 | 1018.7 |
| 20260508154428 | 54 | 251 | 6.0 | 14.0 | 0.00 | 0.00 | 0.00 | 84 | 1018.8 |
| 20260508153933 | 54 | 270 | 9.0 | 14.0 | 0.00 | 0.00 | 0.00 | 84 | 1018.7 |
| 20260508153439 | 54 | 258 | 6.0 | 15.0 | 0.00 | 0.00 | 0.00 | 84 | 1018.8 |
| 20260508152954 | 54 | 277 | 4.0 | 15.0 | 0.00 | 0.00 | 0.00 | 84 | 1018.7 |
| 20260508152436 | 53 | 268 | 5.0 | 13.0 | 0.00 | 0.00 | 0.00 | 84 | 1018.7 |
| 20260508151924 | 53 | 294 | 5.0 | 15.0 | 0.00 | 0.00 | 0.00 | 84 | 1018.7 |
| 20260508151500 | 53 | 295 | 7.0 | 15.0 | 0.00 | 0.00 | 0.00 | 85 | 1018.7 |
| 20260508150924 | 53 | 225 | 5.0 | 11.0 | 0.00 | 0.00 | 0.00 | 84 | 1018.7 |
| 20260508150450 | 53 | 291 | 6.0 | 19.0 | 0.00 | 0.00 | 0.00 | 85 | 1018.7 |
| 20260508145934 | 53 | 303 | 11.0 | 19.0 | 0.00 | 0.00 | 0.00 | 85 | 1018.7 |
| 20260508145435 | 53 | 256 | 6.0 | 19.0 | 0.00 | 0.00 | 0.00 | 85 | 1018.7 |
| 20260508144937 | 53 | 283 | 7.0 | 19.0 | 0.00 | 0.00 | 0.00 | 85 | 1018.7 |
| 20260508144424 | 53 | 280 | 6.0 | 14.0 | 0.00 | 0.00 | 0.00 | 85 | 1018.7 |
| 20260508143932 | 53 | 282 | 8.0 | 17.0 | 0.00 | 0.00 | 0.00 | 85 | 1018.7 |
| 20260508143438 | 53 | 272 | 8.0 | 17.0 | 0.00 | 0.00 | 0.00 | 85 | 1018.7 |
| 20260508142921 | 53 | 285 | 8.0 | 16.0 | 0.00 | 0.00 | 0.00 | 85 | 1018.6 |
| 20260508142427 | 53 | 264 | 8.0 | 16.0 | 0.00 | 0.00 | 0.00 | 85 | 1018.6 |
| 20260508141935 | 53 | 211 | 6.0 | 14.0 | 0.00 | 0.00 | 0.00 | 85 | 1018.6 |
| 20260508141436 | 53 | 302 | 6.0 | 19.0 | 0.00 | 0.00 | 0.00 | 85 | 1018.5 |
| 20260508140924 | 53 | 294 | 8.0 | 19.0 | 0.00 | 0.00 | 0.00 | 85 | 1018.5 |
| 20260508140431 | 52 | 306 | 10.0 | 16.0 | 0.00 | 0.00 | 0.00 | 85 | 1018.5 |
| 20260508135936 | 52 | 252 | 6.0 | 21.0 | 0.00 | 0.00 | 0.00 | 85 | 1018.5 |
| 20260508135422 | 52 | 278 | 8.0 | 21.0 | 0.00 | 0.00 | 0.00 | 85 | 1018.4 |
| 20260508134928 | 52 | 232 | 8.0 | 22.0 | 0.00 | 0.00 | 0.00 | 85 | 1018.3 |
| 20260508134433 | 52 | 268 | 11.0 | 22.0 | 0.00 | 0.00 | 0.00 | 85 | 1018.3 |
| 20260508133934 | 52 | 263 | 11.0 | 22.0 | 0.00 | 0.00 | 0.00 | 85 | 1018.3 |
| 20260508133440 | 52 | 249 | 11.0 | 23.0 | 0.00 | 0.00 | 0.00 | 85 | 1018.2 |
| 20260508132924 | 52 | 275 | 14.0 | 23.0 | 0.00 | 0.00 | 0.00 | 84 | 1018.2 |
| 20260508132501 | 52 | 252 | 10.0 | 23.0 | 0.00 | 0.00 | 0.00 | 84 | 1018.2 |
| 20260508131925 | 53 | 280 | 11.0 | 24.0 | 0.00 | 0.00 | 0.00 | 85 | 1018.2 |
| 20260508131500 | 52 | 256 | 12.0 | 24.0 | 0.00 | 0.00 | 0.00 | 85 | 1018.2 |
| 20260508130925 | 52 | 258 | 6.0 | 20.0 | 0.00 | 0.00 | 0.00 | 84 | 1018.2 |
| 20260508130428 | 53 | 230 | 5.0 | 20.0 | 0.00 | 0.00 | 0.00 | 85 | 1018.2 |
| 20260508125932 | 53 | 222 | 6.0 | 14.0 | 0.00 | 0.00 | 0.00 | 85 | 1018.3 |
| 20260508125419 | 53 | 233 | 5.0 | 15.0 | 0.00 | 0.00 | 0.00 | 85 | 1018.2 |
| 20260508124927 | 53 | 268 | 7.0 | 18.0 | 0.00 | 0.00 | 0.00 | 84 | 1018.2 |
| 20260508124436 | 53 | 275 | 9.0 | 18.0 | 0.00 | 0.00 | 0.00 | 84 | 1018.2 |
| 20260508123922 | 53 | 211 | 7.0 | 18.0 | 0.00 | 0.00 | 0.00 | 84 | 1018.1 |
| 20260508123430 | 53 | 307 | 9.0 | 21.0 | 0.00 | 0.00 | 0.00 | 84 | 1018.2 |
| 20260508122932 | 53 | 277 | 11.0 | 21.0 | 0.00 | 0.00 | 0.00 | 84 | 1018.1 |
| 20260508122438 | 53 | 284 | 9.0 | 21.0 | 0.00 | 0.00 | 0.00 | 84 | 1018.1 |
| 20260508121956 | 53 | 310 | 5.0 | 11.0 | 0.00 | 0.00 | 0.00 | 84 | 1018.2 |
| 20260508121422 | 53 | 101 | 2.0 | 15.0 | 0.00 | 0.00 | 0.00 | 84 | 1018.2 |
| 20260508120931 | 53 | 209 | 6.0 | 16.0 | 0.00 | 0.00 | 0.00 | 85 | 1018.1 |
| 20260508120436 | 53 | 276 | 9.0 | 22.0 | 0.00 | 0.00 | 0.00 | 85 | 1018.1 |
| 20260508115923 | 53 | 261 | 5.0 | 22.0 | 0.00 | 0.00 | 0.00 | 85 | 1018.0 |
| 20260508115430 | 53 | 190 | 9.0 | 20.0 | 0.00 | 0.00 | 0.00 | 85 | 1018.0 |
| 20260508114935 | 53 | 314 | 8.0 | 20.0 | 0.00 | 0.00 | 0.00 | 85 | 1018.0 |
| 20260508114421 | 53 | 244 | 9.0 | 16.0 | 0.00 | 0.00 | 0.00 | 85 | 1018.2 |
| 20260508113958 | 53 | 313 | 4.0 | 14.0 | 0.00 | 0.00 | 0.00 | 85 | 1018.0 |
| 20260508113443 | 53 | 273 | 7.0 | 18.0 | 0.00 | 0.00 | 0.00 | 85 | 1018.0 |
| 20260508112928 | 53 | 251 | 8.0 | 18.0 | 0.00 | 0.00 | 0.00 | 85 | 1018.1 |
| 20260508112437 | 53 | 282 | 9.0 | 19.0 | 0.00 | 0.00 | 0.00 | 85 | 1018.2 |
| 20260508111921 | 53 | 296 | 10.0 | 19.0 | 0.00 | 0.00 | 0.00 | 85 | 1018.1 |
| 20260508111446 | 53 | 247 | 8.0 | 21.0 | 0.00 | 0.00 | 0.00 | 85 | 1018.0 |
| 20260508110934 | 53 | 263 | 6.0 | 17.0 | 0.00 | 0.00 | 0.00 | 85 | 1018.1 |
| 20260508110420 | 53 | 284 | 9.0 | 16.0 | 0.00 | 0.00 | 0.00 | 85 | 1018.1 |
| 20260508105928 | 53 | 231 | 6.0 | 17.0 | 0.00 | 0.00 | 0.00 | 85 | 1018.1 |
| 20260508105435 | 53 | 207 | 6.0 | 20.0 | 0.00 | 0.00 | 0.00 | 85 | 1018.0 |
| 20260508104922 | 53 | 280 | 11.0 | 20.0 | 0.00 | 0.00 | 0.00 | 85 | 1018.0 |
| 20260508104430 | 53 | 283 | 7.0 | 17.0 | 0.00 | 0.00 | 0.00 | 85 | 1018.2 |
| 20260508103936 | 53 | 273 | 6.0 | 17.0 | 0.00 | 0.00 | 0.00 | 85 | 1018.0 |
| 20260508103443 | 53 | 294 | 7.0 | 21.0 | 0.00 | 0.00 | 0.00 | 85 | 1018.1 |
| 20260508102928 | 53 | 278 | 10.0 | 21.0 | 0.00 | 0.00 | 0.00 | 85 | 1018.0 |
| 20260508102438 | 53 | 224 | 8.0 | 15.0 | 0.00 | 0.00 | 0.00 | 85 | 1018.0 |
| 20260508101924 | 53 | 310 | 8.0 | 19.0 | 0.00 | 0.00 | 0.00 | 85 | 1018.0 |
| 20260508101432 | 53 | 275 | 9.0 | 19.0 | 0.00 | 0.00 | 0.00 | 85 | 1018.0 |
| 20260508100921 | 53 | 278 | 6.0 | 15.0 | 0.00 | 0.00 | 0.00 | 85 | 1018.1 |
| 20260508100423 | 53 | 250 | 8.0 | 15.0 | 0.00 | 0.00 | 0.00 | 85 | 1018.1 |
| 20260508095928 | 53 | 261 | 7.0 | 17.0 | 0.00 | 0.00 | 0.00 | 85 | 1018.1 |
| 20260508095436 | 53 | 322 | 6.0 | 18.0 | 0.00 | 0.00 | 0.00 | 85 | 1018.2 |
| 20260508094944 | 53 | 197 | 8.0 | 18.0 | 0.00 | 0.00 | 0.00 | 85 | 1018.1 |
| 20260508094439 | 53 | 263 | 4.0 | 15.0 | 0.00 | 0.00 | 0.00 | 85 | 1018.2 |
| 20260508093926 | 53 | 295 | 2.0 | 17.0 | 0.00 | 0.00 | 0.00 | 85 | 1018.2 |
| 20260508093435 | 53 | 242 | 8.0 | 17.0 | 0.00 | 0.00 | 0.00 | 85 | 1018.1 |
| 20260508092939 | 53 | 212 | 4.0 | 13.0 | 0.00 | 0.00 | 0.00 | 85 | 1018.2 |
| 20260508092457 | 53 | 208 | 7.0 | 13.0 | 0.00 | 0.00 | 0.00 | 85 | 1018.3 |
| 20260508091921 | 53 | 261 | 5.0 | 13.0 | 0.00 | 0.00 | 0.00 | 85 | 1018.2 |
| 20260508091430 | 53 | 240 | 6.0 | 13.0 | 0.00 | 0.00 | 0.00 | 85 | 1018.2 |
| 20260508090937 | 53 | 197 | 4.0 | 12.0 | 0.00 | 0.00 | 0.00 | 85 | 1018.2 |
| 20260508090424 | 53 | 185 | 4.0 | 14.0 | 0.00 | 0.00 | 0.00 | 85 | 1018.1 |
| 20260508085931 | 53 | 1 | 3.0 | 14.0 | 0.00 | 0.00 | 0.00 | 85 | 1018.1 |
| 20260508085419 | 53 | 255 | 6.0 | 13.0 | 0.00 | 0.00 | 0.00 | 85 | 1018.0 |
| 20260508084921 | 53 | 264 | 3.0 | 14.0 | 0.00 | 0.00 | 0.00 | 85 | 1018.1 |
| 20260508084450 | 53 | 360 | 7.0 | 14.0 | 0.00 | 0.00 | 0.00 | 84 | 1018.2 |
| 20260508083936 | 53 | 249 | 4.0 | 13.0 | 0.00 | 0.00 | 0.00 | 84 | 1018.2 |
| 20260508083422 | 53 | 247 | 5.0 | 14.0 | 0.00 | 0.00 | 0.00 | 84 | 1018.1 |
| 20260508082931 | 53 | 296 | 5.0 | 14.0 | 0.00 | 0.00 | 0.00 | 84 | 1018.1 |
| 20260508082437 | 53 | 196 | 4.0 | 18.0 | 0.00 | 0.00 | 0.00 | 84 | 1018.2 |
| 20260508081924 | 53 | 301 | 8.0 | 18.0 | 0.00 | 0.00 | 0.00 | 84 | 1018.2 |
| 20260508081457 | 53 | 342 | 7.0 | 15.0 | 0.00 | 0.00 | 0.00 | 85 | 1018.2 |
| 20260508080922 | 53 | 200 | 5.0 | 13.0 | 0.00 | 0.00 | 0.00 | 85 | 1018.1 |
| 20260508080450 | 53 | 242 | 5.0 | 14.0 | 0.00 | 0.00 | 0.00 | 85 | 1018.2 |
| 20260508075937 | 53 | 268 | 6.0 | 16.0 | 0.00 | 0.00 | 0.00 | 84 | 1018.2 |
| 20260508075424 | 53 | 262 | 7.0 | 21.0 | 0.00 | 0.00 | 0.00 | 84 | 1018.2 |
| 20260508074929 | 53 | 261 | 9.0 | 21.0 | 0.00 | 0.00 | 0.00 | 84 | 1018.0 |
| 20260508074435 | 53 | 242 | 9.0 | 18.0 | 0.00 | 0.00 | 0.00 | 84 | 1017.9 |
| 20260508073935 | 53 | 270 | 9.0 | 17.0 | 0.00 | 0.00 | 0.00 | 84 | 1018.0 |
| 20260508073421 | 53 | 327 | 7.0 | 22.0 | 0.00 | 0.00 | 0.00 | 84 | 1017.9 |
| 20260508072927 | 53 | 272 | 7.0 | 22.0 | 0.00 | 0.00 | 0.00 | 84 | 1017.8 |
| 20260508072435 | 53 | 277 | 8.0 | 18.0 | 0.00 | 0.00 | 0.00 | 84 | 1017.9 |
| 20260508071942 | 53 | 300 | 7.0 | 17.0 | 0.00 | 0.00 | 0.00 | 84 | 1018.0 |
| 20260508071428 | 53 | 295 | 7.0 | 17.0 | 0.00 | 0.00 | 0.00 | 84 | 1017.9 |
| 20260508070936 | 53 | 280 | 7.0 | 20.0 | 0.00 | 0.00 | 0.00 | 84 | 1017.9 |
| 20260508070508 | 53 | 273 | 11.0 | 23.0 | 0.00 | 0.00 | 0.00 | 84 | 1017.9 |
| 20260508065926 | 53 | 258 | 10.0 | 23.0 | 0.00 | 0.00 | 0.00 | 84 | 1017.9 |
| 20260508065435 | 54 | 270 | 9.0 | 20.0 | 0.00 | 0.00 | 0.00 | 84 | 1018.0 |
| 20260508064921 | 54 | 278 | 8.0 | 21.0 | 0.00 | 0.00 | 0.00 | 84 | 1017.8 |
| 20260508064430 | 54 | 240 | 9.0 | 19.0 | 0.00 | 0.00 | 0.00 | 84 | 1017.9 |
| 20260508063937 | 54 | 265 | 10.0 | 18.0 | 0.00 | 0.00 | 0.00 | 84 | 1017.8 |
| 20260508063444 | 54 | 208 | 10.0 | 21.0 | 0.00 | 0.00 | 0.00 | 84 | 1017.9 |
| 20260508062946 | 54 | 188 | 12.0 | 21.0 | 0.00 | 0.00 | 0.00 | 84 | 1018.0 |
| 20260508062434 | 54 | 299 | 6.0 | 18.0 | 0.00 | 0.00 | 0.00 | 84 | 1018.0 |
| 20260508061923 | 54 | 225 | 9.0 | 23.0 | 0.00 | 0.00 | 0.00 | 84 | 1017.9 |
| 20260508061432 | 54 | 327 | 10.0 | 23.0 | 0.00 | 0.00 | 0.00 | 84 | 1017.9 |
| 20260508060921 | 54 | 177 | 9.0 | 20.0 | 0.00 | 0.00 | 0.00 | 84 | 1017.9 |
| 20260508060430 | 54 | 263 | 7.0 | 24.0 | 0.00 | 0.00 | 0.00 | 84 | 1018.0 |
| 20260508055937 | 54 | 256 | 14.0 | 29.0 | 0.00 | 0.00 | 0.00 | 84 | 1017.9 |
| 20260508055419 | 54 | 286 | 8.0 | 29.0 | 0.00 | 0.00 | 0.00 | 85 | 1017.9 |
| 20260508054926 | 54 | 304 | 12.0 | 26.0 | 0.00 | 0.00 | 0.00 | 85 | 1017.8 |
| 20260508054433 | 54 | 230 | 11.0 | 23.0 | 0.00 | 0.00 | 0.00 | 85 | 1017.9 |
| 20260508053921 | 54 | 305 | 12.0 | 28.0 | 0.00 | 0.00 | 0.00 | 85 | 1017.8 |
| 20260508053430 | 54 | 280 | 11.0 | 28.0 | 0.00 | 0.00 | 0.00 | 85 | 1017.9 |
| 20260508052935 | 54 | 308 | 9.0 | 16.0 | 0.00 | 0.00 | 0.00 | 85 | 1017.9 |
| 20260508052424 | 54 | 287 | 9.0 | 19.0 | 0.00 | 0.00 | 0.00 | 85 | 1017.9 |
| 20260508051931 | 54 | 259 | 9.0 | 19.0 | 0.00 | 0.00 | 0.00 | 85 | 1017.9 |
| 20260508051435 | 54 | 289 | 9.0 | 21.0 | 0.00 | 0.00 | 0.00 | 85 | 1018.0 |
| 20260508050923 | 54 | 274 | 13.0 | 25.0 | 0.00 | 0.00 | 0.00 | 85 | 1017.9 |
| 20260508050431 | 54 | 280 | 14.0 | 25.0 | 0.00 | 0.00 | 0.00 | 85 | 1017.9 |
| 20260508045936 | 54 | 242 | 11.0 | 21.0 | 0.00 | 0.00 | 0.00 | 86 | 1018.0 |
| 20260508045444 | 54 | 280 | 9.0 | 23.0 | 0.00 | 0.00 | 0.00 | 86 | 1017.9 |
| 20260508044931 | 54 | 268 | 12.0 | 23.0 | 0.00 | 0.00 | 0.00 | 86 | 1017.9 |
| 20260508044420 | 54 | 302 | 9.0 | 21.0 | 0.00 | 0.00 | 0.00 | 86 | 1017.9 |
| 20260508043922 | 54 | 287 | 12.0 | 20.0 | 0.00 | 0.00 | 0.00 | 86 | 1017.8 |
| 20260508043431 | 54 | 246 | 10.0 | 20.0 | 0.00 | 0.00 | 0.00 | 86 | 1017.8 |
| 20260508042938 | 54 | 259 | 8.0 | 17.0 | 0.00 | 0.00 | 0.00 | 86 | 1017.7 |
| 20260508042453 | 54 | 261 | 9.0 | 17.0 | 0.00 | 0.00 | 0.00 | 86 | 1017.7 |
| 20260508041921 | 54 | 251 | 8.0 | 17.0 | 0.00 | 0.00 | 0.00 | 86 | 1017.6 |
| 20260508041429 | 54 | 270 | 8.0 | 19.0 | 0.00 | 0.00 | 0.00 | 86 | 1017.6 |
| 20260508040937 | 54 | 251 | 10.0 | 19.0 | 0.00 | 0.00 | 0.00 | 86 | 1017.7 |
| 20260508040426 | 54 | 268 | 8.0 | 18.0 | 0.00 | 0.00 | 0.00 | 86 | 1017.6 |
| 20260508035929 | 54 | 276 | 8.0 | 18.0 | 0.00 | 0.00 | 0.00 | 86 | 1017.6 |
| 20260508035437 | 54 | 215 | 5.0 | 16.0 | 0.00 | 0.00 | 0.00 | 86 | 1017.5 |
| 20260508034923 | 54 | 322 | 5.0 | 17.0 | 0.00 | 0.00 | 0.00 | 86 | 1017.3 |
| 20260508034433 | 54 | 354 | 10.0 | 18.0 | 0.00 | 0.00 | 0.00 | 86 | 1017.3 |
| 20260508033920 | 54 | 253 | 7.0 | 19.0 | 0.00 | 0.00 | 0.00 | 86 | 1017.2 |
| 20260508033428 | 54 | 263 | 8.0 | 19.0 | 0.00 | 0.00 | 0.00 | 86 | 1017.2 |
| 20260508032934 | 54 | 244 | 8.0 | 15.0 | 0.00 | 0.00 | 0.00 | 86 | 1017.2 |
| 20260508032420 | 54 | 244 | 6.0 | 13.0 | 0.00 | 0.00 | 0.00 | 86 | 1017.2 |
| 20260508031921 | 54 | 285 | 6.0 | 17.0 | 0.00 | 0.00 | 0.00 | 86 | 1017.0 |
| 20260508031425 | 54 | 227 | 7.0 | 17.0 | 0.00 | 0.00 | 0.00 | 86 | 1017.0 |
| 20260508030932 | 54 | 258 | 6.0 | 16.0 | 0.00 | 0.00 | 0.00 | 86 | 1016.9 |
| 20260508030440 | 54 | 264 | 11.0 | 16.0 | 0.00 | 0.00 | 0.00 | 86 | 1016.9 |
| 20260508025927 | 54 | 247 | 7.0 | 19.0 | 0.00 | 0.00 | 0.00 | 86 | 1016.7 |
| 20260508025436 | 54 | 229 | 10.0 | 19.0 | 0.00 | 0.00 | 0.00 | 86 | 1016.7 |
| 20260508024923 | 54 | 232 | 9.0 | 16.0 | 0.00 | 0.00 | 0.00 | 85 | 1016.6 |
| 20260508024425 | 54 | 223 | 7.0 | 22.0 | 0.00 | 0.00 | 0.00 | 85 | 1016.7 |
| 20260508023933 | 54 | 306 | 11.0 | 22.0 | 0.00 | 0.00 | 0.00 | 85 | 1016.7 |
| 20260508023421 | 55 | 304 | 11.0 | 22.0 | 0.00 | 0.00 | 0.00 | 85 | 1016.7 |
| 20260508022958 | 55 | 220 | 9.0 | 23.0 | 0.00 | 0.00 | 0.00 | 85 | 1016.7 |
| 20260508022455 | 55 | 247 | 8.0 | 23.0 | 0.00 | 0.00 | 0.00 | 85 | 1016.7 |
| 20260508021920 | 55 | 268 | 11.0 | 25.0 | 0.00 | 0.00 | 0.00 | 85 | 1016.8 |
| 20260508021424 | 55 | 268 | 12.0 | 25.0 | 0.00 | 0.00 | 0.00 | 85 | 1016.8 |
| 20260508020946 | 55 | 244 | 10.0 | 22.0 | 0.00 | 0.00 | 0.00 | 84 | 1016.8 |
| 20260508020430 | 55 | 223 | 12.0 | 29.0 | 0.00 | 0.00 | 0.00 | 84 | 1016.8 |
| 20260508015938 | 55 | 294 | 13.0 | 29.0 | 0.00 | 0.00 | 0.00 | 84 | 1016.8 |
| 20260508015456 | 55 | 272 | 9.0 | 22.0 | 0.00 | 0.00 | 0.00 | 83 | 1016.7 |
| 20260508014923 | 55 | 258 | 11.0 | 28.0 | 0.00 | 0.00 | 0.00 | 83 | 1016.7 |
| 20260508014428 | 56 | 287 | 15.0 | 28.0 | 0.00 | 0.00 | 0.00 | 82 | 1016.7 |
| 20260508013930 | 56 | 323 | 13.0 | 24.0 | 0.00 | 0.00 | 0.00 | 82 | 1016.7 |
| 20260508013419 | 56 | 261 | 11.0 | 24.0 | 0.00 | 0.00 | 0.00 | 82 | 1016.7 |
| 20260508012924 | 57 | 296 | 10.0 | 24.0 | 0.00 | 0.00 | 0.00 | 81 | 1016.7 |
| 20260508012431 | 57 | 261 | 14.0 | 24.0 | 0.00 | 0.00 | 0.00 | 81 | 1016.7 |
| 20260508011939 | 57 | 270 | 10.0 | 21.0 | 0.00 | 0.00 | 0.00 | 81 | 1016.8 |
| 20260508011456 | 58 | 233 | 11.0 | 25.0 | 0.00 | 0.00 | 0.00 | 81 | 1016.8 |
| 20260508010922 | 57 | 294 | 10.0 | 25.0 | 0.00 | 0.00 | 0.00 | 81 | 1016.8 |
| 20260508010428 | 57 | 264 | 13.0 | 31.0 | 0.00 | 0.00 | 0.00 | 81 | 1016.8 |
| 20260508005929 | 57 | 280 | 14.0 | 31.0 | 0.00 | 0.00 | 0.00 | 82 | 1016.8 |
| 20260508005436 | 57 | 266 | 18.0 | 29.0 | 0.00 | 0.00 | 0.00 | 81 | 1016.8 |
| 20260508004925 | 58 | 249 | 15.0 | 25.0 | 0.00 | 0.00 | 0.00 | 80 | 1016.9 |
| 20260508004433 | 58 | 310 | 12.0 | 28.0 | 0.00 | 0.00 | 0.00 | 80 | 1016.9 |
| 20260508003941 | 57 | 275 | 13.0 | 32.0 | 0.00 | 0.00 | 0.00 | 80 | 1016.9 |
| 20260508003458 | 57 | 266 | 18.0 | 32.0 | 0.00 | 0.00 | 0.00 | 80 | 1017.0 |
| 20260508002946 | 58 | 258 | 11.0 | 28.0 | 0.00 | 0.00 | 0.00 | 80 | 1017.0 |
| 20260508002430 | 58 | 268 | 19.0 | 28.0 | 0.00 | 0.00 | 0.00 | 79 | 1017.0 |
| 20260508001935 | 58 | 287 | 10.0 | 24.0 | 0.00 | 0.00 | 0.00 | 79 | 1017.1 |
| 20260508001422 | 58 | 278 | 11.0 | 24.0 | 0.00 | 0.00 | 0.00 | 79 | 1017.0 |
| 20260508000931 | 58 | 290 | 14.0 | 24.0 | 0.00 | 0.00 | 0.00 | 80 | 1017.1 |
| 20260508000437 | 58 | 251 | 14.0 | 24.0 | 0.00 | 0.00 | 0.00 | 79 | 1017.0 |
| 20260507235921 | 58 | 276 | 11.0 | 20.0 | 0.00 | 0.00 | 0.00 | 79 | 1017.0 |
| 20260507235428 | 58 | 290 | 10.0 | 27.0 | 0.00 | 0.00 | 0.00 | 79 | 1017.2 |
| 20260507234931 | 58 | 280 | 15.0 | 27.0 | 0.00 | 0.00 | 0.00 | 78 | 1017.2 |
| 20260507234420 | 59 | 349 | 11.0 | 20.0 | 0.00 | 0.00 | 0.00 | 78 | 1017.1 |
| 20260507233949 | 59 | 224 | 8.0 | 20.0 | 0.00 | 0.00 | 0.00 | 79 | 1017.2 |
| 20260507233427 | 58 | 256 | 12.0 | 20.0 | 0.00 | 0.00 | 0.00 | 79 | 1017.1 |
| 20260507232934 | 58 | 301 | 9.0 | 23.0 | 0.00 | 0.00 | 0.00 | 79 | 1017.2 |
| 20260507232422 | 58 | 264 | 9.0 | 27.0 | 0.00 | 0.00 | 0.00 | 79 | 1017.2 |
| 20260507231929 | 58 | 251 | 16.0 | 27.0 | 0.00 | 0.00 | 0.00 | 79 | 1017.3 |
| 20260507231437 | 58 | 273 | 13.0 | 23.0 | 0.00 | 0.00 | 0.00 | 79 | 1017.4 |
| 20260507230941 | 58 | 283 | 14.0 | 25.0 | 0.00 | 0.00 | 0.00 | 79 | 1017.4 |
| 20260507230428 | 58 | 273 | 14.0 | 26.0 | 0.00 | 0.00 | 0.00 | 78 | 1017.5 |
| 20260507225935 | 58 | 283 | 16.0 | 28.0 | 0.00 | 0.00 | 0.00 | 78 | 1017.4 |
| 20260507225423 | 59 | 250 | 17.0 | 28.0 | 0.00 | 0.00 | 0.00 | 77 | 1017.5 |
| 20260507224929 | 60 | 311 | 11.0 | 26.0 | 0.00 | 0.00 | 0.00 | 77 | 1017.6 |
| 20260507224436 | 60 | 261 | 11.0 | 23.0 | 0.00 | 0.00 | 0.00 | 77 | 1017.5 |
| 20260507223924 | 60 | 275 | 10.0 | 20.0 | 0.00 | 0.00 | 0.00 | 78 | 1017.5 |
| 20260507223427 | 60 | 244 | 12.0 | 19.0 | 0.00 | 0.00 | 0.00 | 77 | 1017.6 |
| 20260507222933 | 60 | 256 | 9.0 | 21.0 | 0.00 | 0.00 | 0.00 | 78 | 1017.5 |
| 20260507222438 | 60 | 289 | 12.0 | 21.0 | 0.00 | 0.00 | 0.00 | 78 | 1017.7 |
| 20260507221954 | 59 | 287 | 15.0 | 21.0 | 0.00 | 0.00 | 0.00 | 78 | 1017.7 |
| 20260507221442 | 59 | 259 | 14.0 | 24.0 | 0.00 | 0.00 | 0.00 | 79 | 1017.8 |
| 20260507220927 | 59 | 287 | 16.0 | 24.0 | 0.00 | 0.00 | 0.00 | 78 | 1017.9 |
| 20260507220435 | 60 | 299 | 11.0 | 22.0 | 0.00 | 0.00 | 0.00 | 78 | 1017.9 |
| 20260507215937 | 60 | 230 | 14.0 | 21.0 | 0.00 | 0.00 | 0.00 | 76 | 1018.1 |
| 20260507215444 | 61 | 282 | 10.0 | 17.0 | 0.00 | 0.00 | 0.00 | 77 | 1018.2 |
| 20260507214932 | 61 | 234 | 10.0 | 21.0 | 0.00 | 0.00 | 0.00 | 76 | 1018.2 |
| 20260507214419 | 61 | 301 | 8.0 | 18.0 | 0.00 | 0.00 | 0.00 | 77 | 1018.1 |
| 20260507213927 | 61 | 254 | 9.0 | 18.0 | 0.00 | 0.00 | 0.00 | 77 | 1018.3 |
| 20260507213435 | 61 | 276 | 9.0 | 17.0 | 0.00 | 0.00 | 0.00 | 77 | 1018.3 |
| 20260507212922 | 60 | 270 | 9.0 | 17.0 | 0.00 | 0.00 | 0.00 | 78 | 1018.4 |
| 20260507212424 | 60 | 266 | 10.0 | 18.0 | 0.00 | 0.00 | 0.00 | 78 | 1018.5 |
| 20260507211930 | 60 | 254 | 10.0 | 20.0 | 0.00 | 0.00 | 0.00 | 78 | 1018.5 |
| 20260507211438 | 59 | 273 | 10.0 | 20.0 | 0.00 | 0.00 | 0.00 | 78 | 1018.6 |
| 20260507210924 | 60 | 280 | 11.0 | 19.0 | 0.00 | 0.00 | 0.00 | 77 | 1018.6 |
| 20260507210451 | 60 | 261 | 9.0 | 16.0 | 0.00 | 0.00 | 0.00 | 78 | 1018.5 |
| 20260507205935 | 60 | 226 | 7.0 | 17.0 | 0.00 | 0.00 | 0.00 | 78 | 1018.5 |
| 20260507205423 | 60 | 307 | 11.0 | 21.0 | 0.00 | 0.00 | 0.00 | 78 | 1018.6 |
| 20260507204927 | 60 | 206 | 10.0 | 17.0 | 0.00 | 0.00 | 0.00 | 77 | 1018.6 |
| 20260507204436 | 60 | 247 | 7.0 | 19.0 | 0.00 | 0.00 | 0.00 | 78 | 1018.7 |
| 20260507203923 | 60 | 325 | 9.0 | 19.0 | 0.00 | 0.00 | 0.00 | 78 | 1018.6 |
| 20260507203429 | 60 | 275 | 12.0 | 19.0 | 0.00 | 0.00 | 0.00 | 77 | 1018.7 |
| 20260507202938 | 60 | 247 | 8.0 | 18.0 | 0.00 | 0.00 | 0.00 | 77 | 1018.8 |
| 20260507202425 | 60 | 287 | 9.0 | 17.0 | 0.00 | 0.00 | 0.00 | 77 | 1018.8 |
| 20260507202000 | 60 | 337 | 8.0 | 16.0 | 0.00 | 0.00 | 0.00 | 77 | 1018.8 |
| 20260507201424 | 60 | 277 | 8.0 | 14.0 | 0.00 | 0.00 | 0.00 | 77 | 1018.8 |
| 20260507200932 | 60 | 276 | 5.0 | 14.0 | 0.00 | 0.00 | 0.00 | 78 | 1018.9 |
| 20260507200420 | 60 | 221 | 6.0 | 16.0 | 0.00 | 0.00 | 0.00 | 78 | 1019.0 |